Tunica, MS

1:48 PM CST on November 21, 2017 (GMT -0600)
Tunica

Weather History for KUTA - December, 2012

Change the Weather History Date:

Sunday, December 16, 2012

  Actual Average (KAWM) Record (KAWM)
Temperature  
Mean Temperature 60 °F -  
Max Temperature 62 °F 49 °F 70 °F (1984)
Min Temperature 59 °F 32 °F 6 °F (1989)
Degree Days  
Heating Degree Days 4    
Growing Degree Days 10 (Base 50)    
Moisture  
Dew Point 59 °F    
Average Humidity 94    
Maximum Humidity 100    
Minimum Humidity 88    
Precipitation  
Precipitation 0.01 in - - ()
Sea Level Pressure  
Sea Level Pressure 29.79 in    
Wind  
Wind Speed 9 mph (South)    
Max Wind Speed 14 mph    
Max Gust Speed 18 mph    
Visibility 8 miles    
Events Fog , Rain    
Averages and records for this station are not official NWS values.
T = Trace of Precipitation, MM = Missing Value Source: NWS Daily Summary

Daily Weather History Graph

Daily Weather History Graph

Search for Another Location

Airport or City:

Trip Planner

Search our weather history database for the weather conditions in past years. The results will help you decide how hot, cold, wet, or windy it might be!

Date:

Astronomy

Dec. 16, 2012 Rise Set
Actual Time 7:02 AM CST 4:52 PM CST
Civil Twilight 6:34 AM CST 5:20 PM CST
Nautical Twilight 6:02 AM CST 5:52 PM CST
Astronomical Twilight 5:31 AM CST 6:22 PM CST
Moon 9:42 AM CST (12/16) 8:58 PM CST (12/16)
Length of Visible Light 10h 46m
Length of Day
9h 50m
Waxing Crescent, 16% of the Moon is Illuminated
Dec 16
Waxing Crescent
Dec 19
First Quarter
Dec 28
Full
Jan 4
Last Quarter
Jan 11
New

Hourly Weather History & Observations

Time (CST) Temp. Dew Point Humidity Pressure Visibility Wind Dir Wind Speed Gust Speed Precip Events Conditions
12:15 AM 62.6 °F 60.8 °F 94% 29.84 in 10.0 mi South 10.4 mph - N/A   Scattered Clouds
12:35 AM 62.6 °F 60.8 °F 94% 29.84 in 10.0 mi SSW 12.7 mph - N/A   Mostly Cloudy
12:55 AM 62.6 °F 60.8 °F 94% 29.83 in 10.0 mi South 9.2 mph - N/A   Mostly Cloudy
1:15 AM 62.6 °F 60.8 °F 94% 29.82 in 10.0 mi SSW 9.2 mph - N/A   Scattered Clouds
1:55 AM 62.6 °F 60.8 °F 94% 29.83 in 10.0 mi SSW 9.2 mph - N/A   Scattered Clouds
2:15 AM 62.6 °F 60.8 °F 94% 29.83 in 10.0 mi South 6.9 mph - N/A   Scattered Clouds
2:55 AM 60.8 °F 59.0 °F 94% 29.83 in 10.0 mi SSW 5.8 mph - N/A   Scattered Clouds
3:15 AM 60.8 °F 59.0 °F 94% 29.82 in 10.0 mi SSW 5.8 mph - N/A   Scattered Clouds
3:35 AM 59.0 °F 59.0 °F 100% 29.83 in 10.0 mi SSW 5.8 mph - N/A   Scattered Clouds
3:55 AM 60.8 °F 59.0 °F 94% 29.82 in 10.0 mi SSW 6.9 mph - N/A   Mostly Cloudy
4:15 AM 60.8 °F 59.0 °F 94% 29.83 in 10.0 mi SSW 6.9 mph - N/A   Mostly Cloudy
4:35 AM 60.8 °F 59.0 °F 94% 29.82 in 10.0 mi South 5.8 mph - N/A   Clear
5:15 AM 60.8 °F 59.0 °F 94% 29.82 in 10.0 mi South 3.5 mph - N/A   Scattered Clouds
5:55 AM 59.0 °F 57.2 °F 94% 29.82 in 10.0 mi South 5.8 mph - N/A   Clear
6:15 AM 59.0 °F 55.4 °F 88% 29.83 in 10.0 mi South 8.1 mph - N/A   Clear
6:35 AM 59.0 °F 55.4 °F 88% 29.85 in 10.0 mi South 6.9 mph - N/A   Scattered Clouds
6:55 AM 59.0 °F 57.2 °F 94% 29.85 in 10.0 mi South 5.8 mph - N/A   Mostly Cloudy
7:35 AM 59.0 °F 57.2 °F 94% 29.85 in 10.0 mi South 3.5 mph - N/A   Overcast
7:55 AM 59.0 °F 57.2 °F 94% 29.83 in 10.0 mi SSE 5.8 mph - N/A   Overcast
8:15 AM 59.0 °F 57.2 °F 94% 29.82 in 10.0 mi SSE 11.5 mph - N/A   Overcast
8:35 AM 59.0 °F 57.2 °F 94% 29.81 in 7.0 mi SSE 10.4 mph - N/A   Overcast
8:55 AM 59.0 °F 59.0 °F 100% 29.83 in 7.0 mi South 6.9 mph - N/A   Overcast
9:15 AM 59.0 °F 59.0 °F 100% 29.82 in 7.0 mi SSE 5.8 mph - N/A   Overcast
9:35 AM 60.8 °F 59.0 °F 94% 29.81 in 0.5 mi SE 5.8 mph - N/A Fog Fog
9:55 AM 60.8 °F 59.0 °F 94% 29.81 in 0.2 mi SSE 8.1 mph - N/A Fog Fog
10:15 AM 60.8 °F 59.0 °F 94% 29.82 in 0.2 mi South 8.1 mph - N/A Fog Fog
10:35 AM 60.8 °F 60.8 °F 100% 29.82 in 1.2 mi South 6.9 mph - N/A   Overcast
10:55 AM 60.8 °F 60.8 °F 100% 29.83 in 2.0 mi SSW 8.1 mph - N/A   Overcast
11:35 AM 60.8 °F 60.8 °F 100% 29.82 in 4.0 mi SSW 9.2 mph - N/A   Overcast
11:55 AM 60.8 °F 60.8 °F 100% 29.80 in 7.0 mi South 9.2 mph - N/A   Overcast
12:15 PM 60.8 °F 60.8 °F 100% 29.80 in 7.0 mi South 9.2 mph - N/A   Overcast
12:35 PM 60.8 °F 60.8 °F 100% 29.79 in 7.0 mi South 9.2 mph - N/A Rain Light Rain
12:55 PM 60.8 °F 59.0 °F 94% 29.77 in 7.0 mi South 11.5 mph - N/A Rain Light Rain
1:15 PM 60.8 °F 59.0 °F 94% 29.75 in 7.0 mi SSE 12.7 mph - N/A   Mostly Cloudy
1:35 PM 60.8 °F 59.0 °F 94% 29.74 in 7.0 mi South 13.8 mph - N/A Rain Light Rain
1:55 PM 60.8 °F 59.0 °F 94% 29.72 in 7.0 mi SSE 13.8 mph - N/A Rain Light Rain
2:15 PM 60.8 °F 60.8 °F 100% 29.74 in 10.0 mi South 12.7 mph - N/A Rain Light Rain
2:35 PM 60.8 °F 60.8 °F 100% 29.73 in 10.0 mi South 11.5 mph - N/A   Light Drizzle
2:55 PM 60.8 °F 59.0 °F 94% 29.72 in 10.0 mi South 12.7 mph 17.3 mph N/A   Overcast
3:15 PM 60.8 °F 59.0 °F 94% 29.71 in 10.0 mi SSE 10.4 mph 17.3 mph N/A   Overcast
3:35 PM 60.8 °F 59.0 °F 94% 29.74 in 10.0 mi South 10.4 mph - N/A   Mostly Cloudy
3:55 PM 60.8 °F 59.0 °F 94% 29.73 in 10.0 mi South 10.4 mph - N/A   Scattered Clouds
4:15 PM 60.8 °F 59.0 °F 94% 29.73 in 10.0 mi South 9.2 mph - N/A   Mostly Cloudy
4:35 PM 60.8 °F 57.2 °F 88% 29.74 in 10.0 mi South 12.7 mph - N/A   Overcast
4:55 PM 60.8 °F 59.0 °F 94% 29.75 in 10.0 mi South 12.7 mph 17.3 mph N/A   Overcast
5:15 PM 60.8 °F 59.0 °F 94% 29.75 in 10.0 mi South 10.4 mph 16.1 mph N/A   Overcast
5:35 PM 60.8 °F 59.0 °F 94% 29.76 in 10.0 mi South 9.2 mph - N/A   Mostly Cloudy
5:55 PM 59.0 °F 57.2 °F 94% 29.75 in 10.0 mi South 8.1 mph - N/A   Scattered Clouds
6:15 PM 59.0 °F 57.2 °F 94% 29.76 in 10.0 mi South 8.1 mph - N/A   Mostly Cloudy
6:35 PM 60.8 °F 57.2 °F 88% 29.78 in 10.0 mi SSW 10.4 mph - N/A   Overcast
6:55 PM 60.8 °F 57.2 °F 88% 29.78 in 10.0 mi South 9.2 mph - N/A   Overcast
7:15 PM 59.0 °F 57.2 °F 94% 29.78 in 10.0 mi South 8.1 mph - N/A   Overcast
7:35 PM 60.8 °F 57.2 °F 88% 29.78 in 10.0 mi South 11.5 mph 16.1 mph N/A   Overcast
7:55 PM 59.0 °F 57.2 °F 94% 29.78 in 10.0 mi South 12.7 mph 16.1 mph N/A   Overcast
8:15 PM 59.0 °F 57.2 °F 94% 29.77 in 7.0 mi South 12.7 mph 18.4 mph N/A   Overcast
8:35 PM 59.0 °F 57.2 °F 94% 29.77 in 7.0 mi South 13.8 mph - N/A   Overcast
8:55 PM 59.0 °F 57.2 °F 94% 29.77 in 10.0 mi South 10.4 mph 16.1 mph N/A   Overcast
9:15 PM 59.0 °F 57.2 °F 94% 29.78 in 7.0 mi South 10.4 mph - N/A   Overcast
9:35 PM 59.0 °F 57.2 °F 94% 29.78 in 5.0 mi South 11.5 mph - N/A   Light Drizzle
9:55 PM 59.0 °F 57.2 °F 94% 29.79 in 5.0 mi South 10.4 mph - N/A Rain Light Rain
10:15 PM 59.0 °F 57.2 °F 94% 29.78 in 4.0 mi South 11.5 mph - 0.01 in   Drizzle
10:35 PM 59.0 °F 57.2 °F 94% 29.77 in 7.0 mi South 9.2 mph - 0.01 in   Overcast
10:55 PM 59.0 °F 57.2 °F 94% 29.77 in 10.0 mi South 6.9 mph - 0.01 in   Overcast
11:15 PM 59.0 °F 57.2 °F 94% 29.77 in 10.0 mi South 5.8 mph - N/A   Overcast
11:35 PM 59.0 °F 57.2 °F 94% 29.77 in 10.0 mi South 9.2 mph - N/A   Overcast
11:55 PM 59.0 °F 57.2 °F 94% 29.76 in 10.0 mi South 10.4 mph - N/A   Overcast